Regional Weather Roundup
Issued by NWS

Home | Current Version | Previous Version | Graphics & Text | Print | Product List | Glossary On
Versions: 1 2 3 4 5 6 7 8 9 10 11 12 13 14 15 16 17 18 19 20 21 22 23 24 25 26 27 28 29 30 31 32 33 34 35 36 37 38 39 40 41 42 43 44 45 46 47 48 49 50
000
ASUS43 KMKX 190221
RWRWI

WISCONSIN REGIONAL WEATHER ROUNDUP
NATIONAL WEATHER SERVICE MILWAUKEE/SULLIVAN WI
900 PM CDT WED OCT 18 2017

NOTE: "FAIR" INDICATES FEW OR NO CLOUDS BELOW 12,000 FEET WITH NO
SIGNIFICANT WEATHER AND/OR OBSTRUCTIONS TO VISIBILITY.

WIZ001-002-006>008-014>016-023>028-190300-
NORTHWEST WISCONSIN

CITY           SKY/WX    TMP DP  RH WIND       PRES   REMARKS
SUPERIOR ARPT  CLOUDY    55  20  25 W13G18    29.84R
ASHLAND        CLOUDY    54  22  28 SW12      29.81R
HAYWARD        PTCLDY    57  19  22 W7        29.87R
SIREN          CLOUDY    54  21  27 W13G18    29.91R
CUMBERLAND     CLEAR     52  23  32 W14       29.91R
RICE LAKE      CLEAR     56  22  27 W9G16     29.92R
CHETEK         CLEAR     56  25  30 W10       29.91R
LADYSMITH      CLOUDY    58  25  28 W15G23    29.89R
EAU CLAIRE     CLOUDY    58  30  34 W16G23    29.92R
MENOMONIE      CLOUDY    58  23  25 W16G22    29.93R
NEW RICHMOND   CLOUDY    53  21  28 W10       29.95R
OSCEOLA        PTCLDY    55  24  30 W13       29.97R
$$

WIZ003>005-009-010-017-018-190300-
NORTH CENTRAL WISCONSIN

CITY           SKY/WX    TMP DP  RH WIND       PRES   REMARKS
MANITOWISH WTR CLEAR     56  37  49 W9G17     29.81R
ARBOR VITAE    CLEAR     59  43  55 W10       29.82R
WOODRUFF       CLEAR     59  43  55 W10       29.82R
RHINELANDER    CLEAR     60  45  57 W13       29.83R
EAGLE RIVER    CLEAR     58  41  53 W14       29.80R
LAND O LAKES   CLEAR     59  42  54 W6        29.81R
PHILLIPS       CLOUDY    58  37  45 W7        29.84R
TOMAHAWK       CLEAR     59  43  56 SW6       29.85R
MEDFORD        PTCLDY    57  44  61 W7        29.87R
MERRILL        CLEAR     60  47  63 W10       29.85S
$$

WIZ029-030-035-036-043>047-190300-
CENTRAL WISCONSIN

CITY           SKY/WX    TMP DP  RH WIND       PRES   REMARKS
WAUSAU         CLEAR     62  46  55 SW16G26   29.84S
MOSINEE        PTCLDY    55  48  76 SW8       29.88R
MARSHFIELD     CLEAR     58  46  64 SW10      29.88R
STEVENS POINT  CLEAR     58  46  66 SW8       29.89R
WAUPACA        CLEAR     64  47  54 SW12      29.88S
WAUTOMA        CLEAR     62  47  57 SW8         N/A
WISC RAPIDS    CLEAR     61  48  62 SW9       29.90R
CAMP DOUGLAS   PTCLDY    63  48  59 SW8       29.91R
$$

WIZ011>013-019>022-031-037>040-048>050-190300-
NORTHEAST WISCONSIN

CITY           SKY/WX    TMP DP  RH WIND       PRES   REMARKS
ANTIGO         CLEAR     58  48  67 W13G18    29.85S
SHAWANO        CLEAR     65  46  51 SW8       29.84S
OCONTO         CLEAR     64  45  50 SW10G21   29.83S
STURGEON BAY   CLEAR     63  45  51 SW18      29.83F
GREEN BAY      CLEAR     63  46  54 SW15      29.86F
MANITOWOC      CLEAR     64  44  48 SW14G21   29.90F
APPLETON       PTCLDY    61  39  44 SW16G23   29.87F
CLINTONVILLE   CLEAR     63  46  55 SW13      29.86R
OSHKOSH        CLEAR     61  45  55 SW15G22   29.90F
$$

WIZ032>034-041-042-053>061-190300-
SOUTHWEST WISCONSIN

CITY           SKY/WX    TMP DP  RH WIND       PRES   REMARKS
LA CROSSE      CLEAR     62  48  60 SW8       29.93R
SPARTA         CLEAR     55  48  76 SW3       29.94R
VIROQUA        CLEAR     59  48  67 SW3       29.96R
BOSCOBEL       CLEAR     62  47  57 S6        29.96S
PRAIRIE DU CHI CLEAR     62  46  55 CALM      29.96S
PLATTEVILLE    CLEAR     57  48  73 S9        30.00S
$$

WIZ056-057-062-063-064-067-068-190300-
SOUTH CENTRAL WISCONSIN

CITY           SKY/WX    TMP DP  RH WIND       PRES   REMARKS
REEDSBURG      PTCLDY    64  47  54 SW13G18   29.94S
BARABOO/DELLS  PTCLDY    61  45  54 SW13      29.94S
LONE ROCK      PTCLDY    63  48  58 VRB3      29.96S
MINERAL POINT  CLOUDY    61  46  59 S12       29.98F
MADISON        CLEAR     64  44  48 S9        29.97S
MIDDLETON      CLEAR     63  44  50 SW9       29.98S
WATERTOWN      CLEAR     57  45  63 S8        29.98S
MONROE         CLEAR     55  43  62 S10       30.01R
JANESVILLE     CLEAR     61  43  51 SW6       30.01R
$$

WIZ051-052-058>065-066-070>072-190300-
SOUTHEAST WISCONSIN

CITY           SKY/WX    TMP DP  RH WIND       PRES   REMARKS
MILWAUKEE      PTCLDY    63  43  48 SW14      29.99R
WAUKESHA       CLEAR     61  39  44 SW10      30.00R
MILWAUKEE/TIMM CLEAR     63  37  39 SW9       29.99R
RACINE         CLEAR     62  42  47 SW8       30.01R
BURLINGTON     CLEAR     56  45  65 SW9       30.01R
KENOSHA        CLEAR     62  41  46 SW12      30.00R
FOND DU LAC    CLEAR     63  42  46 SW10G20   29.93S
SHEBOYGAN      CLEAR     62  45  53 SW15      29.93S
WEST BEND      CLEAR     61  41  48 SW13G23   29.96F
JUNEAU         CLEAR     57  44  61 S7        29.97S
$$

LSZ147-162-190300-
LAKE SUPERIOR

STATION/POSITION TIME  TEMP    WIND        PRES    WAVE
                       AIR SEA DIR/SP/G            HT/PER
                 (UTC) (F)     (DEG/KT/KT) (MB)    (FT/S)
W MID LAKE BUOY  0150   58 53              1005.8R   6/ 6
DEVILS ISLAND    0200   58     260/ 22/ 26 1008.3R
PORT WING        0000          240/ 11/ 24 1008.5
SAXON HARBOR     0130   60     230/  7/ 11 1008.5R
$$

LMZ867-665-643>646-190300-
LAKE MICHIGAN

STATION/POSITION TIME  TEMP    WIND        PRES    WAVE
                       AIR SEA DIR/SP/G            HT/PER
                 (UTC) (F)     (DEG/KT/KT) (MB)    (FT/S)
S GREEN BAY BUOY 0200   63 58  210/ 21/ 25 1009.7
N MID LAKE BUOY  0150   62 59  190/ 25/ 31 1009.2F  13/ 9
NORTHPORT PIER   0140   60     170/  7/ 16 1009.1F
KEWAUNEE LAKESHO 0200   61     200/ 11/ 14 1010.9
SHEBOYGAN LAKESH 0200   64     200/ 17/ 18 1013.2S
PORT WASHINGTON  0140   65     220/  8/ 13 1015.2R
ATWATER BUOY     0109   63 52  210/ 12/ 14 1015.2R
MILWAUKEE LAKESH 0200   64     230/ 13/ 16   N/A
S MID LAKE BUOY  0150   64 61  220/ 19/ 23 1015.8R   4/ 5
KENOSHA   LAKESH 0200   64     210/  9/ 13 1015.9
$$

TC  - TEMPERATURE IN CELSIUS
VSB - VISIBILITY IN STATUTE MILES
WCI - WIND CHILL INDEX
HX  - HEAT INDEX





USA.gov is the U.S. government's official web portal to all federal, state and local government web resources and services.